Time,TemperatureF,DewpointF,PressureIn,WindDirection,WindDirectionDegrees,WindSpeedMPH,WindSpeedGustMPH,Humidity,HourlyPrecipIn,Conditions,Clouds,dailyrainin,SoftwareType,DateUTC
2013-01-02 00:02:00,14.5,9.5,28.68,SW,225,7.1,8.2,80,0.00,,,0.00,WUHU216HW,2013-01-02 06:02:00,
2013-01-02 00:07:00,14.5,9.5,28.68,SW,225,4.2,7.1,80,0.00,,,0.00,WUHU216HW,2013-01-02 06:07:00,
2013-01-02 00:12:00,14.5,9.5,28.68,WSW,248,7.3,8.7,80,0.00,,,0.00,WUHU216HW,2013-01-02 06:12:00,
2013-01-02 00:17:00,14.5,9.5,28.68,WSW,248,6.9,8.7,80,0.00,,,0.00,WUHU216HW,2013-01-02 06:17:00,
2013-01-02 00:23:00,14.5,9.5,28.68,SW,225,9.3,9.3,80,0.00,,,0.00,WUHU216HW,2013-01-02 06:23:00,
2013-01-02 00:28:00,14.5,9.5,28.68,WSW,248,6.7,12.7,80,0.00,,,0.00,WUHU216HW,2013-01-02 06:28:00,
2013-01-02 00:33:00,14.5,9.5,28.68,WSW,248,7.6,12.7,80,0.00,,,0.00,WUHU216HW,2013-01-02 06:33:00,
2013-01-02 00:38:00,14.5,9.5,28.68,WSW,248,7.3,9.1,80,0.00,,,0.00,WUHU216HW,2013-01-02 06:38:00,
2013-01-02 00:43:00,14.5,9.5,28.68,WSW,248,7.1,9.1,80,0.00,,,0.00,WUHU216HW,2013-01-02 06:43:00,
2013-01-02 00:48:00,14.7,9.6,28.68,WSW,248,7.8,7.8,80,0.00,,,0.00,WUHU216HW,2013-01-02 06:48:00,
2013-01-02 00:53:00,14.7,9.6,28.68,WSW,248,6.9,9.3,80,0.00,,,0.00,WUHU216HW,2013-01-02 06:53:00,
2013-01-02 00:58:00,14.5,9.5,28.68,WSW,248,6.0,9.6,80,0.00,,,0.00,WUHU216HW,2013-01-02 06:58:00,
2013-01-02 01:03:00,14.5,9.5,28.67,SW,225,7.3,12.0,80,0.00,,,0.00,WUHU216HW,2013-01-02 07:03:00,
2013-01-02 01:08:00,14.3,9.3,28.67,WSW,248,7.3,12.0,80,0.00,,,0.00,WUHU216HW,2013-01-02 07:08:00,
2013-01-02 01:13:00,14.5,9.5,28.67,WSW,248,6.7,10.5,80,0.00,,,0.00,WUHU216HW,2013-01-02 07:13:00,
2013-01-02 01:18:00,14.5,9.7,28.67,WSW,248,7.3,8.9,81,0.00,,,0.00,WUHU216HW,2013-01-02 07:18:00,
2013-01-02 01:23:00,14.7,9.9,28.66,WSW,248,5.3,8.9,81,0.00,,,0.00,WUHU216HW,2013-01-02 07:23:00,
2013-01-02 01:28:00,14.7,9.9,28.66,WSW,248,9.8,9.8,81,0.00,,,0.00,WUHU216HW,2013-01-02 07:28:00,
2013-01-02 01:33:00,14.5,9.5,28.66,WSW,248,8.5,9.8,80,0.00,,,0.00,WUHU216HW,2013-01-02 07:33:00,
2013-01-02 01:39:00,14.5,9.5,28.66,WSW,248,7.3,9.8,80,0.00,,,0.00,WUHU216HW,2013-01-02 07:39:00,
2013-01-02 01:44:00,14.3,9.3,28.67,WSW,248,7.3,9.1,80,0.00,,,0.00,WUHU216HW,2013-01-02 07:44:00,
2013-01-02 01:49:00,14.1,9.1,28.67,WSW,248,6.0,9.1,80,0.00,,,0.00,WUHU216HW,2013-01-02 07:49:00,
2013-01-02 01:54:00,14.1,9.1,28.67,WSW,248,11.1,11.1,80,0.00,,,0.00,WUHU216HW,2013-01-02 07:54:00,
2013-01-02 01:59:00,14.1,9.1,28.67,WSW,248,7.6,11.1,80,0.00,,,0.00,WUHU216HW,2013-01-02 07:59:00,
2013-01-02 02:04:00,14.1,9.1,28.66,SW,225,7.3,7.6,80,0.00,,,0.00,WUHU216HW,2013-01-02 08:04:00,
2013-01-02 02:09:00,13.8,8.7,28.66,WSW,248,6.7,7.6,80,0.00,,,0.00,WUHU216HW,2013-01-02 08:09:00,
2013-01-02 02:14:00,13.8,8.7,28.66,WSW,248,6.7,7.3,80,0.00,,,0.00,WUHU216HW,2013-01-02 08:14:00,
2013-01-02 02:19:00,13.8,8.7,28.66,WSW,248,8.7,8.7,80,0.00,,,0.00,WUHU216HW,2013-01-02 08:19:00,
2013-01-02 02:24:00,13.8,8.7,28.66,WSW,248,5.3,8.7,80,0.00,,,0.00,WUHU216HW,2013-01-02 08:24:00,
2013-01-02 02:29:00,13.6,8.6,28.65,WSW,248,6.0,8.7,80,0.00,,,0.00,WUHU216HW,2013-01-02 08:29:00,
2013-01-02 02:34:00,13.6,8.6,28.66,WSW,248,6.4,8.7,80,0.00,,,0.00,WUHU216HW,2013-01-02 08:34:00,
2013-01-02 02:39:00,13.6,8.6,28.66,WSW,248,5.5,6.7,80,0.00,,,0.00,WUHU216HW,2013-01-02 08:39:00,
2013-01-02 02:44:00,13.6,8.6,28.66,WSW,248,10.0,10.0,80,0.00,,,0.00,WUHU216HW,2013-01-02 08:44:00,
2013-01-02 02:49:00,13.6,8.6,28.66,SW,225,8.0,10.0,80,0.00,,,0.00,WUHU216HW,2013-01-02 08:49:00,
2013-01-02 02:54:00,13.6,8.6,28.65,SW,225,9.1,9.8,80,0.00,,,0.00,WUHU216HW,2013-01-02 08:54:00,
2013-01-02 02:59:00,13.6,8.6,28.65,SW,225,6.7,9.8,80,0.00,,,0.00,WUHU216HW,2013-01-02 08:59:00,
2013-01-02 03:04:00,13.6,8.6,28.65,SW,225,10.7,10.7,80,0.00,,,0.00,WUHU216HW,2013-01-02 09:04:00,
2013-01-02 03:09:00,13.6,8.6,28.65,WSW,248,10.9,10.9,80,0.00,,,0.00,WUHU216HW,2013-01-02 09:09:00,
2013-01-02 03:15:00,13.6,8.6,28.65,WSW,248,7.6,10.9,80,0.00,,,0.00,WUHU216HW,2013-01-02 09:15:00,
2013-01-02 03:20:00,13.6,8.6,28.65,WSW,248,7.8,10.9,80,0.00,,,0.00,WUHU216HW,2013-01-02 09:20:00,
2013-01-02 03:25:00,13.6,8.6,28.64,WSW,248,7.3,10.0,80,0.00,,,0.00,WUHU216HW,2013-01-02 09:25:00,
2013-01-02 03:30:00,13.6,8.6,28.64,WSW,248,5.5,10.0,80,0.00,,,0.00,WUHU216HW,2013-01-02 09:30:00,
2013-01-02 03:35:00,13.6,8.6,28.64,WSW,248,7.1,7.3,80,0.00,,,0.00,WUHU216HW,2013-01-02 09:35:00,
2013-01-02 03:40:00,13.6,8.6,28.64,WSW,248,6.9,7.1,80,0.00,,,0.00,WUHU216HW,2013-01-02 09:40:00,
2013-01-02 03:45:00,13.2,8.2,28.63,WSW,248,8.2,8.2,80,0.00,,,0.00,WUHU216HW,2013-01-02 09:45:00,
2013-01-02 03:50:00,13.4,8.4,28.63,WSW,248,4.4,11.1,80,0.00,,,0.00,WUHU216HW,2013-01-02 09:50:00,
2013-01-02 03:55:00,13.4,8.4,28.63,WSW,248,6.7,11.1,80,0.00,,,0.00,WUHU216HW,2013-01-02 09:55:00,
2013-01-02 04:00:00,13.2,8.2,28.62,WSW,248,7.6,7.6,80,0.00,,,0.00,WUHU216HW,2013-01-02 10:00:00,
2013-01-02 04:05:00,13.2,8.2,28.62,WSW,248,8.2,8.2,80,0.00,,,0.00,WUHU216HW,2013-01-02 10:05:00,
2013-01-02 04:10:00,13.2,8.2,28.62,WSW,248,7.1,8.2,80,0.00,,,0.00,WUHU216HW,2013-01-02 10:10:00,
2013-01-02 04:15:00,13.2,8.2,28.63,WSW,248,6.0,7.1,80,0.00,,,0.00,WUHU216HW,2013-01-02 10:15:00,
2013-01-02 04:20:00,13.2,8.2,28.63,WSW,248,6.4,7.6,80,0.00,,,0.00,WUHU216HW,2013-01-02 10:20:00,
2013-01-02 04:25:00,13.2,8.2,28.63,WSW,248,5.1,8.7,80,0.00,,,0.00,WUHU216HW,2013-01-02 10:25:00,
2013-01-02 04:30:00,13.2,8.2,28.62,WSW,248,4.4,8.7,80,0.00,,,0.00,WUHU216HW,2013-01-02 10:30:00,
2013-01-02 04:35:00,13.2,7.9,28.62,WSW,248,5.3,8.5,79,0.00,,,0.00,WUHU216HW,2013-01-02 10:35:00,
2013-01-02 04:40:00,13.2,7.9,28.62,WSW,248,6.2,6.2,79,0.00,,,0.00,WUHU216HW,2013-01-02 10:40:00,
2013-01-02 04:45:00,13.2,7.9,28.62,WSW,248,0.0,6.7,79,0.00,,,0.00,WUHU216HW,2013-01-02 10:45:00,
2013-01-02 04:50:00,13.2,7.9,28.62,WSW,248,6.4,7.6,79,0.00,,,0.00,WUHU216HW,2013-01-02 10:50:00,
2013-01-02 04:55:00,13.2,7.9,28.62,WSW,248,2.9,7.6,79,0.00,,,0.00,WUHU216HW,2013-01-02 10:55:00,
2013-01-02 05:00:00,13.1,7.7,28.61,WSW,248,5.1,6.4,79,0.00,,,0.00,WUHU216HW,2013-01-02 11:00:00,
2013-01-02 05:05:00,13.1,7.7,28.61,WSW,248,4.2,5.3,79,0.00,,,0.00,WUHU216HW,2013-01-02 11:05:00,
2013-01-02 05:10:00,12.9,7.5,28.61,WSW,248,5.8,5.8,79,0.00,,,0.00,WUHU216HW,2013-01-02 11:10:00,
2013-01-02 05:15:00,12.9,7.5,28.62,WSW,248,6.4,7.1,79,0.00,,,0.00,WUHU216HW,2013-01-02 11:15:00,
2013-01-02 05:20:00,12.9,7.5,28.62,WSW,248,6.7,7.1,79,0.00,,,0.00,WUHU216HW,2013-01-02 11:20:00,
2013-01-02 05:25:00,12.9,7.5,28.62,WSW,248,5.5,6.7,79,0.00,,,0.00,WUHU216HW,2013-01-02 11:25:00,
2013-01-02 05:30:00,12.7,7.4,28.62,WSW,248,5.3,6.9,79,0.00,,,0.00,WUHU216HW,2013-01-02 11:30:00,
2013-01-02 05:36:00,12.7,7.4,28.62,WSW,248,6.2,6.9,79,0.00,,,0.00,WUHU216HW,2013-01-02 11:36:00,
2013-01-02 05:41:00,12.7,7.4,28.62,WSW,248,5.5,6.4,79,0.00,,,0.00,WUHU216HW,2013-01-02 11:41:00,
2013-01-02 05:46:00,12.5,7.2,28.62,WSW,248,0.0,7.3,79,0.00,,,0.00,WUHU216HW,2013-01-02 11:46:00,
2013-01-02 05:51:00,12.3,7.0,28.62,WSW,248,0.0,7.3,79,0.00,,,0.00,WUHU216HW,2013-01-02 11:51:00,
2013-01-02 05:56:00,12.3,7.0,28.62,WSW,248,0.0,0.0,79,0.00,,,0.00,WUHU216HW,2013-01-02 11:56:00,
2013-01-02 06:01:00,12.2,6.8,28.62,WSW,248,6.4,6.4,79,0.00,,,0.00,WUHU216HW,2013-01-02 12:01:00,
2013-01-02 06:06:00,12.2,6.8,28.62,WSW,248,7.6,7.6,79,0.00,,,0.00,WUHU216HW,2013-01-02 12:06:00,
2013-01-02 06:11:00,12.3,7.0,28.62,WSW,248,0.0,7.6,79,0.00,,,0.00,WUHU216HW,2013-01-02 12:11:00,
2013-01-02 06:16:00,12.3,7.0,28.63,WSW,248,0.0,7.6,79,0.00,,,0.00,WUHU216HW,2013-01-02 12:16:00,
2013-01-02 06:21:00,12.2,6.8,28.63,WSW,248,4.6,4.6,79,0.00,,,0.00,WUHU216HW,2013-01-02 12:21:00,
2013-01-02 06:26:00,12.2,6.8,28.63,WSW,248,9.6,9.6,79,0.00,,,0.00,WUHU216HW,2013-01-02 12:26:00,
2013-01-02 06:31:00,12.2,6.8,28.63,WSW,248,0.0,9.6,79,0.00,,,0.00,WUHU216HW,2013-01-02 12:31:00,
2013-01-02 06:36:00,12.2,6.8,28.63,WSW,248,0.0,9.6,79,0.00,,,0.00,WUHU216HW,2013-01-02 12:36:00,
2013-01-02 06:41:00,12.0,6.6,28.63,WSW,248,7.6,7.6,79,0.00,,,0.00,WUHU216HW,2013-01-02 12:41:00,
2013-01-02 06:46:00,12.0,6.6,28.64,WSW,248,0.0,7.6,79,0.00,,,0.00,WUHU216HW,2013-01-02 12:46:00,
2013-01-02 06:51:00,12.0,6.6,28.63,WSW,248,3.8,7.6,79,0.00,,,0.00,WUHU216HW,2013-01-02 12:51:00,
2013-01-02 06:56:00,12.0,6.6,28.63,WSW,248,3.1,8.2,79,0.00,,,0.00,WUHU216HW,2013-01-02 12:56:00,
2013-01-02 07:02:00,12.0,6.6,28.63,WSW,248,4.9,8.2,79,0.00,,,0.00,WUHU216HW,2013-01-02 13:02:00,
2013-01-02 07:07:00,12.0,6.6,28.63,WSW,248,6.0,6.0,79,0.00,,,0.00,WUHU216HW,2013-01-02 13:07:00,
2013-01-02 07:12:00,11.8,6.5,28.63,WSW,248,0.0,6.0,79,0.00,,,0.00,WUHU216HW,2013-01-02 13:12:00,
2013-01-02 07:17:00,11.8,6.5,28.63,WSW,248,0.0,0.0,79,0.00,,,0.00,WUHU216HW,2013-01-02 13:17:00,
2013-01-02 07:22:00,12.0,6.6,28.63,WSW,248,0.0,0.0,79,0.00,,,0.00,WUHU216HW,2013-01-02 13:22:00,
2013-01-02 07:27:00,12.0,6.6,28.63,WSW,248,4.2,4.2,79,0.00,,,0.00,WUHU216HW,2013-01-02 13:27:00,
2013-01-02 07:32:00,12.0,6.6,28.63,WSW,248,4.6,4.6,79,0.00,,,0.00,WUHU216HW,2013-01-02 13:32:00,
2013-01-02 07:37:00,12.0,6.6,28.64,WSW,248,0.0,4.6,79,0.00,,,0.00,WUHU216HW,2013-01-02 13:37:00,
2013-01-02 07:42:00,12.0,6.6,28.63,WSW,248,4.9,5.3,79,0.00,,,0.00,WUHU216HW,2013-01-02 13:42:00,
2013-01-02 07:47:00,12.2,6.8,28.64,WSW,248,0.0,5.3,79,0.00,,,0.00,WUHU216HW,2013-01-02 13:47:00,
2013-01-02 07:52:00,12.3,7.0,28.64,WSW,248,0.0,4.9,79,0.00,,,0.00,WUHU216HW,2013-01-02 13:52:00,
2013-01-02 07:57:00,12.5,7.2,28.64,WSW,248,0.0,3.3,79,0.00,,,0.00,WUHU216HW,2013-01-02 13:57:00,
2013-01-02 08:02:00,12.5,7.2,28.64,WSW,248,0.0,3.3,79,0.00,,,0.00,WUHU216HW,2013-01-02 14:02:00,
2013-01-02 08:07:00,12.7,7.4,28.64,WSW,248,0.0,0.0,79,0.00,,,0.00,WUHU216HW,2013-01-02 14:07:00,
2013-01-02 08:12:00,12.7,7.4,28.64,WSW,248,0.0,5.3,79,0.00,,,0.00,WUHU216HW,2013-01-02 14:12:00,
2013-01-02 08:17:00,13.1,7.7,28.64,WSW,248,4.0,5.3,79,0.00,,,0.00,WUHU216HW,2013-01-02 14:17:00,
2013-01-02 08:22:00,13.2,7.9,28.64,WSW,248,0.0,4.9,79,0.00,,,0.00,WUHU216HW,2013-01-02 14:22:00,
2013-01-02 08:27:00,13.4,7.8,28.64,WSW,248,6.9,6.9,78,0.00,,,0.00,WUHU216HW,2013-01-02 14:27:00,
2013-01-02 08:32:00,13.6,8.0,28.64,WSW,248,0.0,6.9,78,0.00,,,0.00,WUHU216HW,2013-01-02 14:32:00,
2013-01-02 08:37:00,13.8,8.2,28.63,WSW,248,0.0,3.8,78,0.00,,,0.00,WUHU216HW,2013-01-02 14:37:00,
2013-01-02 08:42:00,13.8,8.2,28.64,WSW,248,0.0,0.0,78,0.00,,,0.00,WUHU216HW,2013-01-02 14:42:00,
2013-01-02 08:47:00,14.0,8.3,28.64,WSW,248,4.2,4.2,78,0.00,,,0.00,WUHU216HW,2013-01-02 14:47:00,
2013-01-02 08:52:00,14.1,8.5,28.64,WSW,248,0.8,4.2,79,0.00,,,0.00,WUHU216HW,2013-01-02 14:52:00,
2013-01-02 08:57:00,14.5,8.9,28.65,WSW,248,0.0,0.8,78,0.00,,,0.00,WUHU216HW,2013-01-02 14:57:00,
2013-01-02 09:02:00,14.7,9.0,28.65,WSW,248,4.2,4.2,78,0.00,,,0.00,WUHU216HW,2013-01-02 15:02:00,
2013-01-02 09:08:00,15.0,9.4,28.65,WSW,248,0.0,4.2,78,0.00,,,0.00,WUHU216HW,2013-01-02 15:08:00,
2013-01-02 09:13:00,15.4,9.7,28.66,WSW,248,0.0,0.0,78,0.00,,,0.00,WUHU216HW,2013-01-02 15:13:00,
2013-01-02 09:18:00,15.6,9.9,28.66,WSW,248,0.0,3.5,78,0.00,,,0.00,WUHU216HW,2013-01-02 15:18:00,
2013-01-02 09:23:00,15.9,10.3,28.66,WSW,248,0.0,3.5,78,0.00,,,0.00,WUHU216HW,2013-01-02 15:23:00,
2013-01-02 09:28:00,16.3,10.6,28.66,WSW,248,0.0,0.0,78,0.00,,,0.00,WUHU216HW,2013-01-02 15:28:00,
2013-01-02 09:33:00,16.5,10.7,28.66,WSW,248,0.0,0.0,78,0.00,,,0.00,WUHU216HW,2013-01-02 15:33:00,
2013-01-02 09:38:00,17.2,11.4,28.66,WSW,248,0.0,0.0,78,0.00,,,0.00,WUHU216HW,2013-01-02 15:38:00,
2013-01-02 09:43:00,17.7,11.9,28.66,WSW,248,0.0,0.0,78,0.00,,,0.00,WUHU216HW,2013-01-02 15:43:00,
2013-01-02 09:48:00,17.9,12.1,28.67,WSW,248,0.0,0.0,78,0.00,,,0.00,WUHU216HW,2013-01-02 15:48:00,
2013-01-02 09:53:00,18.3,12.5,28.67,WSW,248,0.0,0.0,78,0.00,,,0.00,WUHU216HW,2013-01-02 15:53:00,
2013-01-02 09:58:00,18.6,12.8,28.67,WSW,248,0.0,0.0,78,0.00,,,0.00,WUHU216HW,2013-01-02 15:58:00,
2013-01-02 10:03:00,19.0,12.9,28.67,WSW,248,0.0,0.0,77,0.00,,,0.00,WUHU216HW,2013-01-02 16:03:00,
2013-01-02 10:08:00,19.2,13.0,28.68,WSW,248,0.0,1.7,77,0.00,,,0.00,WUHU216HW,2013-01-02 16:08:00,
2013-01-02 10:13:00,19.5,13.4,28.68,WSW,248,0.0,3.5,77,0.00,,,0.00,WUHU216HW,2013-01-02 16:13:00,
2013-01-02 10:18:00,19.5,13.4,28.68,WSW,248,0.0,3.5,77,0.00,,,0.00,WUHU216HW,2013-01-02 16:18:00,
2013-01-02 10:23:00,19.9,13.8,28.68,WSW,248,0.0,0.0,77,0.00,,,0.00,WUHU216HW,2013-01-02 16:23:00,
2013-01-02 10:29:00,20.3,13.9,28.68,WSW,248,0.0,0.0,77,0.00,,,0.00,WUHU216HW,2013-01-02 16:29:00,
2013-01-02 10:34:00,20.4,14.3,28.68,WSW,248,0.0,0.0,77,0.00,,,0.00,WUHU216HW,2013-01-02 16:34:00,
2013-01-02 10:39:00,20.8,14.7,28.68,WSW,248,0.0,0.0,77,0.00,,,0.00,WUHU216HW,2013-01-02 16:39:00,
2013-01-02 10:44:00,21.0,14.8,28.68,WSW,248,0.0,5.1,77,0.00,,,0.00,WUHU216HW,2013-01-02 16:44:00,
2013-01-02 10:49:00,21.3,15.2,28.68,WSW,248,0.0,5.1,77,0.00,,,0.00,WUHU216HW,2013-01-02 16:49:00,
2013-01-02 10:54:00,21.7,15.6,28.68,WSW,248,0.0,0.0,77,0.00,,,0.00,WUHU216HW,2013-01-02 16:54:00,
2013-01-02 10:59:00,22.2,16.1,28.68,WSW,248,1.5,5.3,77,0.00,,,0.00,WUHU216HW,2013-01-02 16:59:00,
2013-01-02 11:04:00,22.8,16.6,28.68,WSW,248,0.0,5.3,77,0.00,,,0.00,WUHU216HW,2013-01-02 17:04:00,
2013-01-02 11:09:00,22.8,16.6,28.68,WSW,248,0.0,1.5,77,0.00,,,0.00,WUHU216HW,2013-01-02 17:09:00,
2013-01-02 11:14:00,23.5,17.3,28.68,WSW,248,0.0,0.0,77,0.00,,,0.00,WUHU216HW,2013-01-02 17:14:00,
2013-01-02 11:19:00,23.7,17.5,28.68,WSW,248,0.0,5.5,77,0.00,,,0.00,WUHU216HW,2013-01-02 17:19:00,
2013-01-02 11:24:00,24.4,18.2,28.68,WSW,248,0.0,5.5,77,0.00,,,0.00,WUHU216HW,2013-01-02 17:24:00,
2013-01-02 11:29:00,24.9,18.7,28.68,WSW,248,0.0,0.0,77,0.00,,,0.00,WUHU216HW,2013-01-02 17:29:00,
2013-01-02 11:34:00,25.3,19.0,28.67,WSW,248,4.9,4.9,77,0.00,,,0.00,WUHU216HW,2013-01-02 17:34:00,
2013-01-02 11:39:00,26.0,19.7,28.67,WSW,248,0.0,4.9,77,0.00,,,0.00,WUHU216HW,2013-01-02 17:39:00,
2013-01-02 11:44:00,26.4,20.1,28.67,WSW,248,0.0,0.0,77,0.00,,,0.00,WUHU216HW,2013-01-02 17:44:00,
2013-01-02 11:49:00,27.1,20.5,28.67,WSW,248,0.0,0.0,76,0.00,,,0.00,WUHU216HW,2013-01-02 17:49:00,
2013-01-02 11:55:00,27.6,21.0,28.67,WSW,248,0.0,0.0,76,0.00,,,0.00,WUHU216HW,2013-01-02 17:55:00,
2013-01-02 12:00:00,28.2,21.5,28.67,WSW,248,0.0,0.0,76,0.00,,,0.00,WUHU216HW,2013-01-02 18:00:00,
2013-01-02 12:05:00,28.9,22.2,28.66,WSW,248,0.0,0.0,76,0.00,,,0.00,WUHU216HW,2013-01-02 18:05:00,
2013-01-02 12:10:00,29.6,22.6,28.66,WSW,248,0.0,0.0,75,0.00,,,0.00,WUHU216HW,2013-01-02 18:10:00,
2013-01-02 12:15:00,29.8,22.8,28.66,WSW,248,6.9,6.9,75,0.00,,,0.00,WUHU216HW,2013-01-02 18:15:00,
2013-01-02 12:20:00,30.0,23.0,28.66,WSW,248,0.0,6.9,75,0.00,,,0.00,WUHU216HW,2013-01-02 18:20:00,
2013-01-02 12:25:00,30.3,23.3,28.66,WSW,248,0.0,0.0,75,0.00,,,0.00,WUHU216HW,2013-01-02 18:25:00,
2013-01-02 12:30:00,30.7,23.7,28.66,WSW,248,0.0,0.0,75,0.00,,,0.00,WUHU216HW,2013-01-02 18:30:00,
2013-01-02 12:35:00,30.7,23.7,28.66,WSW,248,0.0,0.0,75,0.00,,,0.00,WUHU216HW,2013-01-02 18:35:00,
2013-01-02 12:40:00,31.1,23.7,28.65,WSW,248,0.0,2.4,74,0.00,,,0.00,WUHU216HW,2013-01-02 18:40:00,
2013-01-02 12:45:00,31.6,24.2,28.65,WSW,248,0.0,2.4,74,0.00,,,0.00,WUHU216HW,2013-01-02 18:45:00,
2013-01-02 12:50:00,32.3,24.9,28.65,WSW,248,0.0,0.0,74,0.00,,,0.00,WUHU216HW,2013-01-02 18:50:00,
2013-01-02 12:55:00,33.2,25.7,28.65,WSW,248,0.0,0.0,74,0.00,,,0.00,WUHU216HW,2013-01-02 18:55:00,
2013-01-02 13:00:00,34.3,26.8,28.64,WNW,293,0.0,0.0,74,0.00,,,0.00,WUHU216HW,2013-01-02 19:00:00,
2013-01-02 13:05:00,34.3,26.3,28.64,WNW,293,0.0,0.0,73,0.00,,,0.00,WUHU216HW,2013-01-02 19:05:00,
2013-01-02 13:10:00,34.3,26.4,28.64,WNW,293,0.0,0.0,73,0.00,,,0.00,WUHU216HW,2013-01-02 19:10:00,
2013-01-02 13:15:00,34.8,26.7,28.64,WNW,293,0.0,0.0,72,0.00,,,0.00,WUHU216HW,2013-01-02 19:15:00,
2013-01-02 13:20:00,35.2,27.0,28.64,West,270,0.0,0.0,72,0.00,,,0.00,WUHU216HW,2013-01-02 19:20:00,
2013-01-02 13:25:00,35.4,27.2,28.64,West,270,0.0,0.0,72,0.00,,,0.00,WUHU216HW,2013-01-02 19:25:00,
2013-01-02 13:30:00,35.4,27.2,28.64,West,270,0.0,0.0,72,0.00,,,0.00,WUHU216HW,2013-01-02 19:30:00,
2013-01-02 13:36:00,35.4,26.9,28.64,West,270,0.0,0.0,71,0.00,,,0.00,WUHU216HW,2013-01-02 19:36:00,
2013-01-02 13:41:00,35.7,27.2,28.64,West,270,0.0,0.0,71,0.00,,,0.00,WUHU216HW,2013-01-02 19:41:00,
2013-01-02 13:46:00,35.6,27.2,28.64,West,270,0.0,0.0,72,0.00,,,0.00,WUHU216HW,2013-01-02 19:46:00,
2013-01-02 13:51:00,35.2,27.0,28.64,SW,225,0.0,8.5,72,0.00,,,0.00,WUHU216HW,2013-01-02 19:51:00,
2013-01-02 13:56:00,34.8,27.0,28.64,NNW,338,0.0,8.5,73,0.00,,,0.00,WUHU216HW,2013-01-02 19:56:00,
2013-01-02 14:01:00,34.3,26.4,28.64,WNW,293,0.0,7.3,73,0.00,,,0.00,WUHU216HW,2013-01-02 20:01:00,
2013-01-02 14:06:00,34.1,26.6,28.64,NNW,338,9.1,9.1,74,0.00,,,0.00,WUHU216HW,2013-01-02 20:06:00,
2013-01-02 14:11:00,33.8,26.2,28.64,NNW,338,0.0,9.1,74,0.00,,,0.00,WUHU216HW,2013-01-02 20:11:00,
2013-01-02 14:16:00,33.8,26.6,28.65,WNW,293,0.0,9.1,75,0.00,,,0.00,WUHU216HW,2013-01-02 20:16:00,
2013-01-02 14:21:00,33.8,26.6,28.65,North,0,0.0,4.4,75,0.00,,,0.00,WUHU216HW,2013-01-02 20:21:00,
2013-01-02 14:26:00,33.6,26.4,28.65,NW,315,0.0,4.4,75,0.00,,,0.00,WUHU216HW,2013-01-02 20:26:00,
2013-01-02 14:31:00,33.8,26.9,28.65,South,180,0.0,6.2,76,0.00,,,0.00,WUHU216HW,2013-01-02 20:31:00,
2013-01-02 14:36:00,33.9,27.1,28.65,WSW,248,0.0,11.4,76,0.00,,,0.00,WUHU216HW,2013-01-02 20:36:00,
2013-01-02 14:41:00,33.8,26.9,28.64,NNW,338,5.5,11.4,76,0.00,,,0.00,WUHU216HW,2013-01-02 20:41:00,
2013-01-02 14:46:00,33.8,26.9,28.65,NNW,338,9.8,9.8,76,0.00,,,0.00,WUHU216HW,2013-01-02 20:46:00,
2013-01-02 14:51:00,33.6,26.7,28.65,NNW,338,0.0,9.8,76,0.00,,,0.00,WUHU216HW,2013-01-02 20:51:00,
2013-01-02 14:56:00,33.8,26.9,28.66,WNW,293,0.0,0.0,76,0.00,,,0.00,WUHU216HW,2013-01-02 20:56:00,
2013-01-02 15:01:00,33.8,26.9,28.66,West,270,0.0,0.8,76,0.00,,,0.00,WUHU216HW,2013-01-02 21:01:00,
2013-01-02 15:06:00,33.6,26.7,28.66,WNW,293,0.0,0.8,76,0.00,,,0.00,WUHU216HW,2013-01-02 21:06:00,
2013-01-02 15:11:00,33.8,27.2,28.66,WNW,293,0.0,0.0,77,0.00,,,0.00,WUHU216HW,2013-01-02 21:11:00,
2013-01-02 15:16:00,33.6,27.0,28.66,WNW,293,0.0,0.0,77,0.00,,,0.00,WUHU216HW,2013-01-02 21:16:00,
2013-01-02 15:21:00,33.6,27.0,28.66,West,270,0.0,0.0,77,0.00,,,0.00,WUHU216HW,2013-01-02 21:21:00,
2013-01-02 15:26:00,33.4,26.9,28.66,NW,315,0.0,0.0,77,0.00,,,0.00,WUHU216HW,2013-01-02 21:26:00,
2013-01-02 15:31:00,33.4,26.9,28.66,NW,315,0.0,0.0,77,0.00,,,0.00,WUHU216HW,2013-01-02 21:31:00,
2013-01-02 15:36:00,33.0,26.9,28.67,NW,315,0.0,0.0,78,0.00,,,0.00,WUHU216HW,2013-01-02 21:36:00,
2013-01-02 15:41:00,32.9,26.7,28.67,NW,315,0.0,0.0,78,0.00,,,0.00,WUHU216HW,2013-01-02 21:41:00,
2013-01-02 15:46:00,32.9,26.7,28.67,NW,315,0.0,0.0,78,0.00,,,0.00,WUHU216HW,2013-01-02 21:46:00,
2013-01-02 15:52:00,32.9,26.7,28.68,NW,315,0.0,3.5,78,0.00,,,0.00,WUHU216HW,2013-01-02 21:52:00,
2013-01-02 15:57:00,32.7,26.9,28.68,NW,315,0.0,3.5,79,0.00,,,0.00,WUHU216HW,2013-01-02 21:57:00,
2013-01-02 16:02:00,32.7,26.9,28.68,NW,315,0.0,0.0,79,0.00,,,0.00,WUHU216HW,2013-01-02 22:02:00,
2013-01-02 16:07:00,32.7,26.9,28.68,NW,315,0.0,0.0,79,0.00,,,0.00,WUHU216HW,2013-01-02 22:07:00,
2013-01-02 16:12:00,32.7,26.9,28.68,NW,315,0.0,0.0,79,0.00,,,0.00,WUHU216HW,2013-01-02 22:12:00,
2013-01-02 16:17:00,32.5,26.7,28.69,NW,315,0.0,0.0,79,0.00,,,0.00,WUHU216HW,2013-01-02 22:17:00,
2013-01-02 16:22:00,32.5,26.7,28.69,NW,315,0.0,0.0,79,0.00,,,0.00,WUHU216HW,2013-01-02 22:22:00,
2013-01-02 16:27:00,32.5,26.7,28.69,NNW,338,0.0,0.0,79,0.00,,,0.00,WUHU216HW,2013-01-02 22:27:00,
2013-01-02 16:32:00,32.5,26.7,28.69,NNW,338,0.0,9.3,79,0.00,,,0.00,WUHU216HW,2013-01-02 22:32:00,
2013-01-02 16:37:00,32.3,26.6,28.69,NNW,338,5.1,9.3,79,0.00,,,0.00,WUHU216HW,2013-01-02 22:37:00,
2013-01-02 16:42:00,32.3,26.6,28.70,North,0,4.0,5.1,79,0.00,,,0.00,WUHU216HW,2013-01-02 22:42:00,
2013-01-02 16:47:00,32.1,26.4,28.70,NNW,338,6.4,7.3,79,0.00,,,0.00,WUHU216HW,2013-01-02 22:47:00,
2013-01-02 16:52:00,32.1,26.4,28.70,NNW,338,6.9,7.3,79,0.00,,,0.00,WUHU216HW,2013-01-02 22:52:00,
2013-01-02 16:57:00,32.1,26.4,28.71,NNW,338,0.0,6.9,79,0.00,,,0.00,WUHU216HW,2013-01-02 22:57:00,
2013-01-02 17:02:00,32.1,26.1,28.71,NNW,338,9.1,9.1,78,0.00,,,0.00,WUHU216HW,2013-01-02 23:02:00,
2013-01-02 17:08:00,31.8,25.7,28.71,NNW,338,11.4,11.4,78,0.00,,,0.00,WUHU216HW,2013-01-02 23:08:00,
2013-01-02 17:13:00,31.8,25.7,28.71,NNW,338,0.0,11.4,78,0.00,,,0.00,WUHU216HW,2013-01-02 23:13:00,
2013-01-02 17:18:00,31.8,25.7,28.71,NNW,338,4.6,11.4,78,0.00,,,0.00,WUHU216HW,2013-01-02 23:18:00,
2013-01-02 17:23:00,31.8,25.7,28.71,NNW,338,0.0,7.3,78,0.00,,,0.00,WUHU216HW,2013-01-02 23:23:00,
2013-01-02 17:28:00,31.8,25.7,28.71,NW,315,4.9,5.5,78,0.00,,,0.00,WUHU216HW,2013-01-02 23:28:00,
2013-01-02 17:33:00,31.8,25.7,28.72,NW,315,0.0,4.9,78,0.00,,,0.00,WUHU216HW,2013-01-02 23:33:00,
2013-01-02 17:38:00,31.6,25.5,28.72,NW,315,0.0,1.7,78,0.00,,,0.00,WUHU216HW,2013-01-02 23:38:00,
2013-01-02 17:43:00,31.6,25.5,28.72,NW,315,0.0,2.6,78,0.00,,,0.00,WUHU216HW,2013-01-02 23:43:00,
2013-01-02 17:48:00,31.6,25.5,28.72,NW,315,0.0,2.6,78,0.00,,,0.00,WUHU216HW,2013-01-02 23:48:00,
2013-01-02 17:53:00,31.6,25.5,28.72,NW,315,0.0,1.3,78,0.00,,,0.00,WUHU216HW,2013-01-02 23:53:00,
2013-01-02 17:58:00,31.4,25.4,28.72,NW,315,0.0,0.0,78,0.00,,,0.00,WUHU216HW,2013-01-02 23:58:00,
2013-01-02 18:03:00,31.2,25.2,28.73,NW,315,0.0,0.0,78,0.00,,,0.00,WUHU216HW,2013-01-03 00:03:00,
2013-01-02 18:08:00,31.2,25.2,28.73,NW,315,0.0,0.0,78,0.00,,,0.00,WUHU216HW,2013-01-03 00:08:00,
2013-01-02 18:13:00,31.2,25.2,28.73,NW,315,0.0,0.0,78,0.00,,,0.00,WUHU216HW,2013-01-03 00:13:00,
2013-01-02 18:18:00,31.1,25.0,28.73,NW,315,0.0,0.0,78,0.00,,,0.00,WUHU216HW,2013-01-03 00:18:00,
2013-01-02 18:23:00,30.9,24.8,28.73,NW,315,0.0,0.0,78,0.00,,,0.00,WUHU216HW,2013-01-03 00:23:00,
2013-01-02 18:28:00,30.9,24.8,28.73,NW,315,0.0,0.0,78,0.00,,,0.00,WUHU216HW,2013-01-03 00:28:00,
2013-01-02 18:34:00,30.7,24.6,28.73,NW,315,0.0,0.0,78,0.00,,,0.00,WUHU216HW,2013-01-03 00:34:00,
2013-01-02 18:39:00,30.7,25.0,28.73,NW,315,0.0,0.0,79,0.00,,,0.00,WUHU216HW,2013-01-03 00:39:00,
2013-01-02 18:44:00,30.7,25.0,28.73,NW,315,0.0,0.0,79,0.00,,,0.00,WUHU216HW,2013-01-03 00:44:00,
2013-01-02 18:49:00,30.7,25.0,28.73,NW,315,0.0,0.0,79,0.00,,,0.00,WUHU216HW,2013-01-03 00:49:00,
2013-01-02 18:54:00,30.5,24.8,28.73,NW,315,0.0,0.0,79,0.00,,,0.00,WUHU216HW,2013-01-03 00:54:00,
2013-01-02 18:59:00,30.5,24.8,28.73,NW,315,0.0,0.0,79,0.00,,,0.00,WUHU216HW,2013-01-03 00:59:00,
2013-01-02 19:04:00,30.7,25.0,28.73,NW,315,0.0,0.0,79,0.00,,,0.00,WUHU216HW,2013-01-03 01:04:00,
2013-01-02 19:09:00,30.7,25.0,28.74,NW,315,0.0,0.0,79,0.00,,,0.00,WUHU216HW,2013-01-03 01:09:00,
2013-01-02 19:14:00,30.7,25.0,28.74,NW,315,0.0,0.0,79,0.00,,,0.00,WUHU216HW,2013-01-03 01:14:00,
2013-01-02 19:19:00,30.5,24.8,28.74,NW,315,0.0,0.0,79,0.00,,,0.00,WUHU216HW,2013-01-03 01:19:00,
2013-01-02 19:24:00,30.5,24.8,28.74,NW,315,0.0,0.0,79,0.00,,,0.00,WUHU216HW,2013-01-03 01:24:00,
2013-01-02 19:30:00,30.5,24.8,28.74,NW,315,0.0,0.0,79,0.00,,,0.00,WUHU216HW,2013-01-03 01:30:00,
2013-01-02 19:35:00,30.3,24.6,28.74,NW,315,0.0,0.0,79,0.00,,,0.00,WUHU216HW,2013-01-03 01:35:00,
2013-01-02 19:40:00,30.2,24.4,28.74,NW,315,0.0,0.0,79,0.00,,,0.00,WUHU216HW,2013-01-03 01:40:00,
2013-01-02 19:45:00,30.2,24.4,28.74,NW,315,0.0,0.0,79,0.00,,,0.00,WUHU216HW,2013-01-03 01:45:00,
2013-01-02 19:50:00,30.0,24.2,28.75,NW,315,0.0,0.0,79,0.00,,,0.00,WUHU216HW,2013-01-03 01:50:00,
2013-01-02 19:55:00,30.0,24.2,28.75,NW,315,0.0,0.0,79,0.00,,,0.00,WUHU216HW,2013-01-03 01:55:00,
2013-01-02 20:00:00,30.0,24.2,28.75,NW,315,0.0,0.0,79,0.00,,,0.00,WUHU216HW,2013-01-03 02:00:00,
2013-01-02 20:05:00,30.0,24.2,28.75,NW,315,0.0,0.0,79,0.00,,,0.00,WUHU216HW,2013-01-03 02:05:00,
2013-01-02 20:10:00,29.8,24.1,28.75,NW,315,0.0,0.0,79,0.00,,,0.00,WUHU216HW,2013-01-03 02:10:00,
2013-01-02 20:16:00,29.8,24.4,28.75,NW,315,0.0,0.0,80,0.00,,,0.00,WUHU216HW,2013-01-03 02:16:00,
2013-01-02 20:21:00,29.8,24.4,28.74,NW,315,0.0,0.0,80,0.00,,,0.00,WUHU216HW,2013-01-03 02:21:00,
2013-01-02 20:26:00,29.8,24.4,28.74,NW,315,0.0,0.0,80,0.00,,,0.00,WUHU216HW,2013-01-03 02:26:00,
2013-01-02 20:31:00,29.6,24.2,28.74,NW,315,0.0,0.0,80,0.00,,,0.00,WUHU216HW,2013-01-03 02:31:00,
2013-01-02 20:36:00,29.4,24.0,28.75,NW,315,0.0,0.0,80,0.00,,,0.00,WUHU216HW,2013-01-03 02:36:00,
2013-01-02 20:41:00,29.4,24.0,28.75,NW,315,0.0,0.0,80,0.00,,,0.00,WUHU216HW,2013-01-03 02:41:00,
2013-01-02 20:46:00,29.4,24.0,28.75,NW,315,0.0,0.0,80,0.00,,,0.00,WUHU216HW,2013-01-03 02:46:00,
2013-01-02 20:51:00,29.3,23.9,28.75,NW,315,0.0,0.0,80,0.00,,,0.00,WUHU216HW,2013-01-03 02:51:00,
2013-01-02 20:56:00,29.1,23.7,28.76,NW,315,0.0,0.0,80,0.00,,,0.00,WUHU216HW,2013-01-03 02:56:00,
2013-01-02 21:01:00,29.1,23.7,28.76,NW,315,0.0,0.0,80,0.00,,,0.00,WUHU216HW,2013-01-03 03:01:00,
2013-01-02 21:06:00,29.1,23.7,28.76,NW,315,0.0,0.0,80,0.00,,,0.00,WUHU216HW,2013-01-03 03:06:00,
2013-01-02 21:11:00,29.1,23.7,28.76,NW,315,0.0,0.0,80,0.00,,,0.00,WUHU216HW,2013-01-03 03:11:00,
2013-01-02 21:16:00,28.9,23.5,28.76,NW,315,0.0,0.0,80,0.00,,,0.00,WUHU216HW,2013-01-03 03:16:00,
2013-01-02 21:21:00,28.9,23.5,28.77,NW,315,0.0,0.0,80,0.00,,,0.00,WUHU216HW,2013-01-03 03:21:00,
2013-01-02 21:27:00,28.7,23.3,28.77,NW,315,0.0,0.0,80,0.00,,,0.00,WUHU216HW,2013-01-03 03:27:00,
2013-01-02 21:32:00,28.7,23.3,28.77,NW,315,0.0,0.0,80,0.00,,,0.00,WUHU216HW,2013-01-03 03:32:00,
2013-01-02 21:37:00,28.7,23.3,28.77,NW,315,0.0,0.0,80,0.00,,,0.00,WUHU216HW,2013-01-03 03:37:00,
2013-01-02 21:42:00,28.5,23.1,28.78,NW,315,0.0,0.0,80,0.00,,,0.00,WUHU216HW,2013-01-03 03:42:00,
2013-01-02 21:47:00,28.5,23.1,28.78,NW,315,0.0,0.0,80,0.00,,,0.00,WUHU216HW,2013-01-03 03:47:00,
2013-01-02 21:52:00,28.2,22.8,28.78,NW,315,0.0,0.0,80,0.00,,,0.00,WUHU216HW,2013-01-03 03:52:00,
2013-01-02 21:57:00,28.2,22.8,28.78,NW,315,0.0,0.0,80,0.00,,,0.00,WUHU216HW,2013-01-03 03:57:00,
2013-01-02 22:02:00,28.2,23.1,28.78,NW,315,0.0,0.0,81,0.00,,,0.00,WUHU216HW,2013-01-03 04:02:00,
2013-01-02 22:07:00,28.0,22.9,28.78,NW,315,0.0,0.0,81,0.00,,,0.00,WUHU216HW,2013-01-03 04:07:00,
2013-01-02 22:12:00,28.0,22.9,28.78,NW,315,0.0,0.0,81,0.00,,,0.00,WUHU216HW,2013-01-03 04:12:00,
2013-01-02 22:18:00,28.0,22.9,28.78,NW,315,0.0,0.0,81,0.00,,,0.00,WUHU216HW,2013-01-03 04:18:00,
2013-01-02 22:23:00,28.0,22.9,28.78,NW,315,0.0,0.0,81,0.00,,,0.00,WUHU216HW,2013-01-03 04:23:00,
2013-01-02 22:28:00,28.0,22.9,28.79,NW,315,0.0,0.0,81,0.00,,,0.00,WUHU216HW,2013-01-03 04:28:00,
2013-01-02 22:33:00,28.0,22.9,28.79,NW,315,0.0,0.0,81,0.00,,,0.00,WUHU216HW,2013-01-03 04:33:00,
2013-01-02 22:38:00,28.2,23.1,28.79,NW,315,0.0,0.0,81,0.00,,,0.00,WUHU216HW,2013-01-03 04:38:00,
2013-01-02 22:43:00,28.0,22.9,28.79,NW,315,0.0,0.0,81,0.00,,,0.00,WUHU216HW,2013-01-03 04:43:00,
2013-01-02 22:48:00,28.0,22.9,28.80,NW,315,0.0,0.0,81,0.00,,,0.00,WUHU216HW,2013-01-03 04:48:00,
2013-01-02 22:53:00,28.2,23.1,28.80,NW,315,0.0,0.0,81,0.00,,,0.00,WUHU216HW,2013-01-03 04:53:00,
2013-01-02 22:58:00,28.0,22.9,28.80,NW,315,0.0,0.0,81,0.00,,,0.00,WUHU216HW,2013-01-03 04:58:00,
2013-01-02 23:01:00,28.2,23.1,28.80,NW,315,0.0,0.0,81,0.00,,,0.00,WUHU216HW,2013-01-03 05:01:00,
2013-01-02 23:02:00,28.2,23.1,28.80,NW,315,0.0,0.0,81,0.00,,,0.00,WUHU216HW,2013-01-03 05:02:00,
2013-01-02 23:03:00,28.2,23.1,28.80,NW,315,0.0,0.0,81,0.00,,,0.00,WUHU216HW,2013-01-03 05:03:00,
2013-01-02 23:08:00,28.2,23.1,28.80,NW,315,0.0,0.0,81,0.00,,,0.00,WUHU216HW,2013-01-03 05:08:00,
2013-01-02 23:13:00,28.2,23.3,28.80,NW,315,0.0,0.0,82,0.00,,,0.00,WUHU216HW,2013-01-03 05:13:00,
2013-01-02 23:19:00,28.2,23.3,28.80,NW,315,0.0,0.0,82,0.00,,,0.00,WUHU216HW,2013-01-03 05:19:00,
2013-01-02 23:24:00,28.0,23.2,28.80,NW,315,0.0,0.0,82,0.00,,,0.00,WUHU216HW,2013-01-03 05:24:00,
2013-01-02 23:29:00,28.0,23.2,28.80,NNW,338,0.0,0.0,82,0.00,,,0.00,WUHU216HW,2013-01-03 05:29:00,
2013-01-02 23:34:00,28.0,23.2,28.80,NW,315,0.0,0.0,82,0.00,,,0.00,WUHU216HW,2013-01-03 05:34:00,
2013-01-02 23:39:00,28.0,23.2,28.81,NW,315,0.0,0.0,82,0.00,,,0.00,WUHU216HW,2013-01-03 05:39:00,
2013-01-02 23:44:00,28.0,23.2,28.81,NW,315,0.0,0.0,82,0.00,,,0.00,WUHU216HW,2013-01-03 05:44:00,
2013-01-02 23:49:00,28.0,23.2,28.81,NW,315,0.0,0.0,82,0.00,,,0.00,WUHU216HW,2013-01-03 05:49:00,
2013-01-02 23:54:00,28.0,23.2,28.80,NW,315,0.0,0.0,82,0.00,,,0.00,WUHU216HW,2013-01-03 05:54:00,
2013-01-02 23:59:00,28.0,23.2,28.80,NW,315,0.0,0.0,82,0.00,,,0.00,WUHU216HW,2013-01-03 05:59:00,